Regional Weather Roundup
Issued by NWS

Home | Current Version | Previous Version | Text Only | Print | Product List | Glossary Off
Versions: 1 2 3 4 5 6 7 8 9 10 11 12 13 14 15 16 17 18 19 20 21 22 23 24 25 26 27

000
ASUS45 KCYS 212010
RWRWY

WYOMING REGIONAL WEATHER ROUNDUP
NATIONAL WEATHER SERVICE CHEYENNE WY
200 PM MDT SAT OCT 21 2017

NOTE:  "FAIR" INDICATES FEW OR NO CLOUDS BELOW 12,000 FEET
WITH NO SIGNIFICANT WEATHER AND/OR OBSTRUCTIONS TO VISIBILITY.

WYZ001-212100-
YELLOWSTONE NATIONAL PARK

CITY           SKY/WX    TMP DP  RH WIND       PRES   REMARKS
LK YELLOWSTONE   N/A     25  20  81 VRB5      30.08R WCI  19
W YELLOWSTONE  NOT AVBL

$$
WYZ002>013-054>058-071-098>099-212100-
NORTHERN WYOMING

CITY           SKY/WX    TMP DP  RH WIND       PRES   REMARKS
JACKSON        CLOUDY    35  20  54 SW13G23   30.11F WCI  26
CODY           FAIR      46  18  32 W16G23    29.98S
GREYBULL       FAIR      54  11  18 W15G26    29.93S
WORLAND        PTSUNNY   54  10  17 VRB3      29.94S
SHERIDAN       FAIR      52  14  22 N20G25    29.89S
BUFFALO        CLOUDY    53   9  17 N14       29.91S
GILLETTE       FAIR      53  14  21 W22G32    29.90S
HULETT         MOCLDY    52  19  28 NW15G29   29.88R
NEWCASTLE      FAIR      52  14  22 NW23G32   29.90S

$$
WYZ014>020-022>026-101>103-212100-
CENTRAL WYOMING

CITY           SKY/WX    TMP DP  RH WIND       PRES   REMARKS
BIG PINEY      FAIR      39  11  31 NW18G26   30.12S WCI  30
PINEDALE       MOCLDY    36  14  41 NW18G24   30.13S WCI  25
DUBOIS         MOCLDY    34  14  44 NW24G35   30.02F WCI  21
LANDER         FAIR      48  11  22 W21G33    29.99S
RIVERTON       FAIR      49   9  19 W22       29.99R
CASPER         FAIR      51   9  18 W18G31    29.96F
DOUGLAS        FAIR      53  11  18 W23G37    29.94F

$$
WYZ021-027>030-104>119-212100-
SOUTHERN WYOMING

CITY           SKY/WX    TMP DP  RH WIND       PRES   REMARKS
EVANSTON       PTSUNNY   39  17  41 W16G30    30.18F WCI  30
KEMMERER       FAIR      37  14  38 W22G28    30.15S WCI  27
FORT BRIDGER   CLOUDY    42  16  34 W25G33    30.19F
ROCK SPRINGS   FAIR      41  12  30 W22G33    30.13S
DIXON          CLOUDY    36  26  67 S14       30.16S WCI  27
RAWLINS        FAIR      43  12  28 W31G41    30.06F
SARATOGA       FAIR      37  25  60 SW18      30.10F WCI  27
LARAMIE        FAIR      39  14  36 W28G37    30.05R WCI  28
CHEYENNE       FAIR      46  10  23 W29G40    30.01R
TORRINGTON     FAIR      55   6  14 NW22G32   29.93S
PINE BLUFFS    FAIR      52  12  20 W30       29.98S

$$




USA.gov is the U.S. government's official web portal to all federal, state and local government web resources and services.